,,Stat5,,Stat1,,Stat2,,Stat3,,Stat4,,Wind1,,Wind1,
time,status,PA1M_AVG,status,PR1M_SUM,status,RH1M_AVG,status,SR1M_AVG,status,TA1M_AVG,status,W1dAve1m,status,W1sAve1m,
2001-04-22, 00:00:00,VALID,915.549,VALID,0,VALID,99.0097,VALID,0,VALID,20.0588,VALID,211,VALID,0.351128,
2001-04-22, 00:01:00,VALID,915.54,VALID,0,VALID,99.0287,VALID,0.0169808,VALID,20.0556,VALID,207,VALID,0.433388,
2001-04-22, 00:02:00,VALID,915.52,VALID,0,VALID,99.0669,VALID,-0.0169808,VALID,20.0785,VALID,205,VALID,0.526563,
2001-04-22, 00:03:00,VALID,915.512,VALID,0,VALID,99.0682,VALID,0,VALID,20.0777,VALID,199,VALID,0.582237,
2001-04-22, 00:04:00,VALID,915.504,VALID,0,VALID,99.0783,VALID,0,VALID,20.0906,VALID,184,VALID,0.595703,
2001-04-22, 00:05:00,VALID,915.498,VALID,0,VALID,99.0504,VALID,0.0169808,VALID,20.0844,VALID,177,VALID,0.547903,
2001-04-22, 00:06:00,VALID,915.488,VALID,0,VALID,99.0427,VALID,0,VALID,20.0484,VALID,176,VALID,0.53267,
2001-04-22, 00:07:00,VALID,915.487,VALID,0,VALID,99.03,VALID,0,VALID,20.0332,VALID,175,VALID,0.666941,
2001-04-22, 00:08:00,VALID,915.46,VALID,0,VALID,99.0262,VALID,0,VALID,20.0104,VALID,165,VALID,0.534939,
2001-04-22, 00:09:00,VALID,915.453,VALID,0,VALID,99.0059,VALID,0.0169808,VALID,19.9646,VALID,151,VALID,0.406883,
2001-04-22, 00:10:00,VALID,915.43,VALID,0,VALID,98.9881,VALID,0,VALID,19.9105,VALID,146,VALID,0.825658,
2001-04-22, 00:11:00,VALID,915.416,VALID,0,VALID,99.0097,VALID,0,VALID,19.8707,VALID,155,VALID,0.762153,
2001-04-22, 00:12:00,VALID,915.402,VALID,0,VALID,99.0224,VALID,0.0169808,VALID,19.8685,VALID,161,VALID,0.633657,
2001-04-22, 00:13:00,VALID,915.402,VALID,0,VALID,99.0453,VALID,0,VALID,19.8555,VALID,166,VALID,0.552734,
2001-04-22, 00:14:00,VALID,915.387,VALID,0,VALID,99.0758,VALID,0,VALID,19.8391,VALID,175,VALID,0.519301,
2001-04-22, 00:15:00,VALID,915.37,VALID,0,VALID,99.1292,VALID,0,VALID,19.8844,VALID,174,VALID,0.445518,
2001-04-22, 00:16:00,VALID,915.349,VALID,0,VALID,99.1203,VALID,-0.0169808,VALID,19.8779,VALID,174,VALID,0.487723,
2001-04-22, 00:17:00,VALID,915.338,VALID,0,VALID,99.1254,VALID,0,VALID,19.8849,VALID,173,VALID,0.458984,
2001-04-22, 00:18:00,VALID,915.314,VALID,0,VALID,99.1279,VALID,0,VALID,19.8712,VALID,166,VALID,0.458116,
2001-04-22, 00:19:00,VALID,915.282,VALID,0,VALID,99.1241,VALID,-0.0169808,VALID,19.8714,VALID,169,VALID,0.623915,
2001-04-22, 00:20:00,VALID,915.267,VALID,0,VALID,99.1534,VALID,0,VALID,19.8811,VALID,182,VALID,0.608758,
2001-04-22, 00:21:00,VALID,915.233,VALID,0,VALID,99.1674,VALID,0,VALID,19.8978,VALID,209,VALID,0.483073,
2001-04-22, 00:22:00,VALID,915.222,VALID,0,VALID,99.189,VALID,0,VALID,19.907,VALID,207,VALID,0.230686,
2001-04-22, 00:23:00,VALID,915.209,VALID,0,VALID,99.1953,VALID,-0.0169808,VALID,19.9167,VALID,195,VALID,0.0230263,
2001-04-22, 00:24:00,VALID,915.207,VALID,0,VALID,99.2093,VALID,-0.0169808,VALID,19.9368,VALID,202,VALID,0.295982,
2001-04-22, 00:25:00,VALID,915.191,VALID,0,VALID,99.208,VALID,0,VALID,19.9298,VALID,200,VALID,0.300676,
2001-04-22, 00:26:00,VALID,915.177,VALID,0,VALID,99.2195,VALID,-0.0169808,VALID,19.9589,VALID,188,VALID,0.365809,
2001-04-22, 00:27:00,VALID,915.187,VALID,0,VALID,99.2131,VALID,0,VALID,19.9522,VALID,189,VALID,0.314611,
2001-04-22, 00:28:00,VALID,915.172,VALID,0,VALID,99.2182,VALID,0,VALID,19.9723,VALID,176,VALID,0.00580929,
2001-04-22, 00:29:00,VALID,915.171,VALID,0,VALID,99.222,VALID,0,VALID,19.9654,VALID,176,VALID,0,
2001-04-22, 00:30:00,VALID,915.164,VALID,0,VALID,99.2144,VALID,-0.0339617,VALID,19.9587,VALID,176,VALID,0,
2001-04-22, 00:31:00,VALID,915.17,VALID,0,VALID,99.2246,VALID,0,VALID,19.952,VALID,186,VALID,0.0714286,
2001-04-22, 00:32:00,VALID,915.174,VALID,0,VALID,99.2335,VALID,0,VALID,19.9681,VALID,218,VALID,0.112196,
2001-04-22, 00:33:00,VALID,915.174,VALID,0,VALID,99.2347,VALID,-0.0169808,VALID,19.9818,VALID,218,VALID,0.0488281,
2001-04-22, 00:34:00,VALID,915.181,VALID,0,VALID,99.2335,VALID,0.0169808,VALID,19.991,VALID,222,VALID,0.287109,
2001-04-22, 00:35:00,VALID,915.186,VALID,0,VALID,99.2373,VALID,0,VALID,19.9939,VALID,219,VALID,0.452508,
2001-04-22, 00:36:00,VALID,915.186,VALID,0,VALID,99.2475,VALID,0,VALID,20.0004,VALID,226,VALID,0.509766,
2001-04-22, 00:37:00,VALID,915.187,VALID,0,VALID,99.2347,VALID,0.0169808,VALID,19.9808,VALID,217,VALID,0.447483,
2001-04-22, 00:38:00,VALID,915.177,VALID,0,VALID,99.2373,VALID,0,VALID,19.9974,VALID,215,VALID,0.371711,
2001-04-22, 00:39:00,VALID,915.169,VALID,0,VALID,99.2195,VALID,0,VALID,19.9942,VALID,205,VALID,0.190402,
2001-04-22, 00:40:00,VALID,915.159,VALID,0,VALID,99.222,VALID,0,VALID,20.0012,VALID,194,VALID,0.127956,
2001-04-22, 00:41:00,VALID,915.165,VALID,0,VALID,99.2271,VALID,-0.0169808,VALID,19.9751,VALID,182,VALID,0,
2001-04-22, 00:42:00,VALID,915.133,VALID,0,VALID,99.2169,VALID,0,VALID,19.9554,VALID,195,VALID,0.102407,
2001-04-22, 00:43:00,VALID,915.134,VALID,0,VALID,99.2182,VALID,-0.0169808,VALID,19.9395,VALID,190,VALID,0.117388,
2001-04-22, 00:44:00,VALID,915.096,VALID,0,VALID,99.2195,VALID,-0.0169808,VALID,19.9199,VALID,186,VALID,0.0825893,
2001-04-22, 00:45:00,VALID,915.081,VALID,0,VALID,99.2157,VALID,0,VALID,19.9105,VALID,166,VALID,0.580387,
2001-04-22, 00:46:00,VALID,915.056,VALID,0,VALID,99.2258,VALID,0.0169808,VALID,19.9072,VALID,178,VALID,0.746205,
2001-04-22, 00:47:00,VALID,915.026,VALID,0,VALID,99.2437,VALID,0,VALID,19.9105,VALID,180,VALID,0.504557,
2001-04-22, 00:48:00,VALID,914.988,VALID,0,VALID,99.2449,VALID,0,VALID,19.9005,VALID,178,VALID,0.561415,
2001-04-22, 00:49:00,VALID,914.945,VALID,0,VALID,99.2627,VALID,0,VALID,19.8938,VALID,181,VALID,0.720052,
2001-04-22, 00:50:00,VALID,914.929,VALID,0,VALID,99.2538,VALID,-0.0169808,VALID,19.8876,VALID,181,VALID,0.814762,
2001-04-22, 00:51:00,VALID,914.894,VALID,0,VALID,99.2653,VALID,0,VALID,19.9013,VALID,190,VALID,0.520616,
2001-04-22, 00:52:00,VALID,914.881,VALID,0,VALID,99.2525,VALID,0,VALID,19.8776,VALID,184,VALID,0.0746528,
2001-04-22, 00:53:00,VALID,914.875,VALID,0,VALID,99.2487,VALID,-0.0169808,VALID,19.862,VALID,175,VALID,0.397615,
2001-04-22, 00:54:00,VALID,914.888,VALID,0,VALID,99.2449,VALID,-0.0339617,VALID,19.8299,VALID,171,VALID,0.374107,
2001-04-22, 00:55:00,VALID,914.893,VALID,0,VALID,99.2309,VALID,-0.0339617,VALID,19.8043,VALID,158,VALID,0.463049,
2001-04-22, 00:56:00,VALID,914.903,VALID,0,VALID,99.2246,VALID,-0.0339617,VALID,19.7623,VALID,137,VALID,0.805836,
2001-04-22, 00:57:00,VALID,914.893,VALID,0,VALID,99.2182,VALID,-0.0509425,VALID,19.7268,VALID,121,VALID,0.612542,
2001-04-22, 00:58:00,VALID,914.886,VALID,0,VALID,99.2335,VALID,-0.0339617,VALID,19.688,VALID,116,VALID,0.591546,
2001-04-22, 00:59:00,VALID,914.891,VALID,0,VALID,99.2462,VALID,-0.0339617,VALID,19.6711,VALID,114,VALID,0.573214,
2001-04-22, 01:00:00,VALID,914.889,VALID,0,VALID,99.2602,VALID,-0.0509425,VALID,19.6654,VALID,107,VALID,0.737048,
2001-04-22, 01:01:00,VALID,914.889,VALID,0,VALID,99.2653,VALID,-0.0509425,VALID,19.662,VALID,106,VALID,0.796205,
2001-04-22, 01:02:00,VALID,914.862,VALID,0,VALID,99.2945,VALID,-0.101885,VALID,19.6751,VALID,102,VALID,0.729167,
2001-04-22, 01:03:00,VALID,914.849,VALID,0,VALID,99.2907,VALID,-0.0679233,VALID,19.6952,VALID,102,VALID,0.898655,
2001-04-22, 01:04:00,VALID,914.82,VALID,0,VALID,99.2996,VALID,-0.0679233,VALID,19.6853,VALID,107,VALID,1.00369,
2001-04-22, 01:05:00,VALID,914.811,VALID,0,VALID,99.3034,VALID,-0.0679233,VALID,19.6883,VALID,105,VALID,0.5919,
2001-04-22, 01:06:00,VALID,914.791,VALID,0,VALID,99.3098,VALID,-0.0339617,VALID,19.6846,VALID,117,VALID,0.533854,
2001-04-22, 01:07:00,VALID,914.765,VALID,0,VALID,99.3098,VALID,-0.0509425,VALID,19.6784,VALID,136,VALID,0.358724,
2001-04-22, 01:08:00,VALID,914.736,VALID,0,VALID,99.3021,VALID,-0.0509425,VALID,19.6754,VALID,149,VALID,0.393092,
2001-04-22, 01:09:00,VALID,914.717,VALID,0,VALID,99.3098,VALID,-0.0169808,VALID,19.6687,VALID,155,VALID,0.282813,
2001-04-22, 01:10:00,VALID,914.696,VALID,0,VALID,99.3136,VALID,-0.0339617,VALID,19.6786,VALID,177,VALID,0.285262,
2001-04-22, 01:11:00,VALID,914.675,VALID,0,VALID,99.3187,VALID,-0.0509425,VALID,19.6786,VALID,176,VALID,0.324449,
2001-04-22, 01:12:00,VALID,914.658,VALID,0,VALID,99.3021,VALID,-0.0169808,VALID,19.6617,VALID,176,VALID,0.248522,
2001-04-22, 01:13:00,VALID,914.652,VALID,0,VALID,99.3161,VALID,-0.0679233,VALID,19.6495,VALID,176,VALID,0.366386,
2001-04-22, 01:14:00,VALID,914.644,VALID,0,VALID,99.3136,VALID,-0.0679233,VALID,19.6361,VALID,176,VALID,0.0209821,
2001-04-22, 01:15:00,VALID,914.66,VALID,0,VALID,99.311,VALID,-0.0169808,VALID,19.6272,VALID,176,VALID,0,
2001-04-22, 01:16:00,VALID,914.662,VALID,0,VALID,99.3161,VALID,-0.0679233,VALID,19.6334,VALID,176,VALID,0,
2001-04-22, 01:17:00,VALID,914.675,VALID,0,VALID,99.3174,VALID,-0.0509425,VALID,19.6172,VALID,170,VALID,0.0240885,
2001-04-22, 01:18:00,VALID,914.675,VALID,0,VALID,99.3301,VALID,-0.0509425,VALID,19.6272,VALID,138,VALID,0.345052,
2001-04-22, 01:19:00,VALID,914.648,VALID,0,VALID,99.3187,VALID,-0.0679233,VALID,19.6242,VALID,109,VALID,0.370443,
2001-04-22, 01:20:00,VALID,914.617,VALID,0,VALID,99.3072,VALID,-0.0339617,VALID,19.575,VALID,109,VALID,0.462171,
2001-04-22, 01:21:00,VALID,914.594,VALID,0,VALID,99.3009,VALID,-0.0849042,VALID,19.5325,VALID,114,VALID,0.544705,
2001-04-22, 01:22:00,VALID,914.556,VALID,0,VALID,99.3021,VALID,-0.0339617,VALID,19.5233,VALID,127,VALID,0.562934,
2001-04-22, 01:23:00,VALID,914.535,VALID,0,VALID,99.3009,VALID,-0.0849042,VALID,19.4977,VALID,152,VALID,0.574219,
2001-04-22, 01:24:00,VALID,914.514,VALID,0,VALID,99.3009,VALID,-0.0849042,VALID,19.4756,VALID,164,VALID,0.554018,
2001-04-22, 01:25:00,VALID,914.493,VALID,0,VALID,99.3021,VALID,-0.0169808,VALID,19.4525,VALID,156,VALID,0.60853,
2001-04-22, 01:26:00,VALID,914.484,VALID,0,VALID,99.3098,VALID,-0.0169808,VALID,19.4366,VALID,151,VALID,0.831342,
2001-04-22, 01:27:00,VALID,914.463,VALID,0,VALID,99.3276,VALID,-0.0679233,VALID,19.4199,VALID,153,VALID,0.974662,
2001-04-22, 01:28:00,VALID,914.461,VALID,0,VALID,99.3174,VALID,-0.0509425,VALID,19.4139,VALID,150,VALID,0.671274,
2001-04-22, 01:29:00,VALID,914.453,VALID,0,VALID,99.3327,VALID,-0.0679233,VALID,19.401,VALID,165,VALID,0.507143,
2001-04-22, 01:30:00,VALID,914.431,VALID,0,VALID,99.3327,VALID,-0.0849042,VALID,19.398,VALID,171,VALID,0.354646,
2001-04-22, 01:31:00,VALID,914.401,VALID,0,VALID,99.3403,VALID,-0.0679233,VALID,19.3819,VALID,170,VALID,0.144643,
2001-04-22, 01:32:00,VALID,914.388,VALID,0,VALID,99.3352,VALID,-0.101885,VALID,19.3754,VALID,170,VALID,0,
2001-04-22, 01:33:00,VALID,914.36,VALID,0,VALID,99.3314,VALID,-0.0339617,VALID,19.356,VALID,170,VALID,0.0362413,
2001-04-22, 01:34:00,VALID,914.332,VALID,0,VALID,99.3416,VALID,-0.0679233,VALID,19.3302,VALID,165,VALID,0.0687934,
2001-04-22, 01:35:00,VALID,914.301,VALID,0,VALID,99.3276,VALID,-0.0849042,VALID,19.3141,VALID,150,VALID,0.0277549,
2001-04-22, 01:36:00,VALID,914.262,VALID,0,VALID,99.3288,VALID,-0.101885,VALID,19.3141,VALID,124,VALID,0.510417,
2001-04-22, 01:37:00,VALID,914.22,VALID,0,VALID,99.3263,VALID,-0.0679233,VALID,19.2825,VALID,113,VALID,0.860243,
2001-04-22, 01:38:00,VALID,914.193,VALID,0,VALID,99.3276,VALID,-0.0339617,VALID,19.2423,VALID,112,VALID,0.776316,
2001-04-22, 01:39:00,VALID,914.157,VALID,0,VALID,99.3479,VALID,0.0169808,VALID,19.2579,VALID,123,VALID,0.658036,
2001-04-22, 01:40:00,VALID,914.123,VALID,0,VALID,99.3619,VALID,0.0339617,VALID,19.2577,VALID,140,VALID,0.560811,
2001-04-22, 01:41:00,VALID,914.1,VALID,0,VALID,99.3708,VALID,0,VALID,19.2708,VALID,141,VALID,0.615809,
2001-04-22, 01:42:00,VALID,914.082,VALID,0,VALID,99.3784,VALID,-0.0169808,VALID,19.2778,VALID,145,VALID,0.477407,
2001-04-22, 01:43:00,VALID,914.08,VALID,0,VALID,99.3823,VALID,-0.0849042,VALID,19.2753,VALID,140,VALID,0.238982,
2001-04-22, 01:44:00,VALID,914.087,VALID,0,VALID,99.3899,VALID,-0.0849042,VALID,19.2954,VALID,129,VALID,0.0861607,
2001-04-22, 01:45:01,VALID,914.089,VALID,0,VALID,99.3835,VALID,-0.0679233,VALID,19.2889,VALID,129,VALID,0,
2001-04-22, 01:46:00,VALID,914.102,VALID,0,VALID,99.3899,VALID,-0.0849042,VALID,19.2817,VALID,129,VALID,0,
2001-04-22, 01:47:00,VALID,914.105,VALID,0,VALID,99.3823,VALID,-0.0849042,VALID,19.2621,VALID,129,VALID,0,
2001-04-22, 01:48:00,VALID,914.115,VALID,0,VALID,99.3861,VALID,-0.0849042,VALID,19.2494,VALID,106,VALID,0,
2001-04-22, 01:49:00,VALID,914.105,VALID,0,VALID,99.3835,VALID,-0.0679233,VALID,19.2658,VALID,91,VALID,0,
2001-04-22, 01:50:00,VALID,914.104,VALID,0,VALID,99.381,VALID,-0.0849042,VALID,19.2368,VALID,88,VALID,0,
2001-04-22, 01:51:01,VALID,914.094,VALID,0,VALID,99.3861,VALID,-0.101885,VALID,19.2365,VALID,78,VALID,0,
2001-04-22, 01:52:00,VALID,914.087,VALID,0,VALID,99.3848,VALID,-0.101885,VALID,19.2174,VALID,52,VALID,0,
2001-04-22, 01:53:01,VALID,914.071,VALID,0,VALID,99.3924,VALID,-0.101885,VALID,19.2268,VALID,53,VALID,0,
2001-04-22, 01:54:00,VALID,914.061,VALID,0,VALID,99.395,VALID,-0.101885,VALID,19.2502,VALID,56,VALID,0,
2001-04-22, 01:55:01,VALID,914.05,VALID,0,VALID,99.4115,VALID,-0.101885,VALID,19.2596,VALID,57,VALID,0,
2001-04-22, 01:56:00,VALID,914.047,VALID,0,VALID,99.4026,VALID,-0.0849042,VALID,19.2626,VALID,60,VALID,0,
2001-04-22, 01:57:00,VALID,914.042,VALID,0,VALID,99.4115,VALID,-0.101885,VALID,19.282,VALID,55,VALID,0,
2001-04-22, 01:58:00,VALID,914.046,VALID,0,VALID,99.409,VALID,-0.0509425,VALID,19.2917,VALID,39,VALID,0,
2001-04-22, 01:59:00,VALID,914.057,VALID,0,VALID,99.4115,VALID,-0.101885,VALID,19.2855,VALID,49,VALID,0,
2001-04-22, 02:00:01,VALID,914.056,VALID,0,VALID,99.4102,VALID,-0.101885,VALID,19.279,VALID,54,VALID,0,
2001-04-22, 02:01:00,VALID,914.061,VALID,0,VALID,99.4039,VALID,-0.101885,VALID,19.2499,VALID,79,VALID,0,
2001-04-22, 02:02:00,VALID,914.072,VALID,0,VALID,99.4077,VALID,-0.101885,VALID,19.2377,VALID,79,VALID,0,
2001-04-22, 02:03:01,VALID,914.076,VALID,0,VALID,99.4166,VALID,-0.0849042,VALID,19.234,VALID,79,VALID,0,
2001-04-22, 02:04:00,VALID,914.08,VALID,0,VALID,99.414,VALID,-0.0849042,VALID,19.234,VALID,80,VALID,0,
2001-04-22, 02:05:00,VALID,914.082,VALID,0,VALID,99.414,VALID,-0.0679233,VALID,19.2271,VALID,90,VALID,0,
2001-04-22, 02:06:01,VALID,914.082,VALID,0,VALID,99.4191,VALID,-0.101885,VALID,19.2271,VALID,95,VALID,0,
2001-04-22, 02:07:00,VALID,914.07,VALID,0,VALID,99.4229,VALID,-0.0849042,VALID,19.2564,VALID,94,VALID,0,
2001-04-22, 02:08:01,VALID,914.075,VALID,0,VALID,99.442,VALID,-0.0339617,VALID,19.278,VALID,94,VALID,0,
2001-04-22, 02:09:00,VALID,914.062,VALID,0,VALID,99.4471,VALID,0,VALID,19.3203,VALID,70,VALID,0.0245536,
2001-04-22, 02:10:01,VALID,914.04,VALID,0,VALID,99.4446,VALID,0.0169808,VALID,19.3394,VALID,40,VALID,0.139992,
2001-04-22, 02:11:00,VALID,914.025,VALID,0,VALID,99.456,VALID,0.0169808,VALID,19.3454,VALID,109,VALID,0,
2001-04-22, 02:12:01,VALID,914.017,VALID,0,VALID,99.442,VALID,0,VALID,19.3518,VALID,109,VALID,0.102618,
2001-04-22, 02:13:00,VALID,914.027,VALID,0,VALID,99.4458,VALID,0.0169808,VALID,19.3424,VALID,109,VALID,0,
2001-04-22, 02:14:00,VALID,914.037,VALID,0,VALID,99.4458,VALID,-0.0169808,VALID,19.3553,VALID,109,VALID,0.0678571,
2001-04-22, 02:15:01,VALID,914.04,VALID,0,VALID,99.4522,VALID,0.0169808,VALID,19.362,VALID,105,VALID,0.452303,
2001-04-22, 02:16:00,VALID,914.057,VALID,0,VALID,99.4433,VALID,0,VALID,19.371,VALID,106,VALID,0.226339,
2001-04-22, 02:17:00,VALID,914.075,VALID,0,VALID,99.4408,VALID,0.0169808,VALID,19.3777,VALID,106,VALID,0.0659722,
2001-04-22, 02:18:00,VALID,914.079,VALID,0,VALID,99.4382,VALID,0,VALID,19.3814,VALID,106,VALID,0,
2001-04-22, 02:19:00,VALID,914.09,VALID,0,VALID,99.4509,VALID,0,VALID,19.3876,VALID,106,VALID,0,
2001-04-22, 02:20:00,VALID,914.101,VALID,0,VALID,99.4471,VALID,0,VALID,19.4102,VALID,136,VALID,0,
2001-04-22, 02:21:01,VALID,914.091,VALID,0,VALID,99.4509,VALID,0,VALID,19.3978,VALID,302,VALID,0.41862,
2001-04-22, 02:22:01,VALID,914.086,VALID,0,VALID,99.4395,VALID,0,VALID,19.407,VALID,313,VALID,0.421007,
2001-04-22, 02:23:01,VALID,914.074,VALID,0,VALID,99.4446,VALID,-0.0679233,VALID,19.4239,VALID,310,VALID,0.213199,
2001-04-22, 02:24:00,VALID,914.06,VALID,0,VALID,99.4369,VALID,-0.101885,VALID,19.4182,VALID,289,VALID,0.194643,
2001-04-22, 02:25:01,VALID,914.048,VALID,0,VALID,99.4369,VALID,-0.0849042,VALID,19.4047,VALID,283,VALID,0,
2001-04-22, 02:26:00,VALID,914.034,VALID,0,VALID,99.442,VALID,-0.0849042,VALID,19.4214,VALID,283,VALID,0.000689338,
2001-04-22, 02:27:00,VALID,914.042,VALID,0,VALID,99.4433,VALID,-0.0679233,VALID,19.4147,VALID,59,VALID,0.294764,
2001-04-22, 02:28:00,VALID,914.019,VALID,0,VALID,99.442,VALID,-0.0849042,VALID,19.4087,VALID,102,VALID,0.475962,
2001-04-22, 02:29:00,VALID,914.023,VALID,0,VALID,99.4369,VALID,-0.0509425,VALID,19.3851,VALID,106,VALID,0.443304,
2001-04-22, 02:30:01,VALID,914.007,VALID,0,VALID,99.442,VALID,-0.101885,VALID,19.3888,VALID,101,VALID,0.451686,
2001-04-22, 02:31:01,VALID,914.027,VALID,0,VALID,99.4408,VALID,-0.0849042,VALID,19.3821,VALID,103,VALID,0.489286,
2001-04-22, 02:32:00,VALID,914.013,VALID,0,VALID,99.4229,VALID,-0.0849042,VALID,19.3501,VALID,104,VALID,0.584418,
2001-04-22, 02:33:01,VALID,914.016,VALID,0,VALID,99.4318,VALID,-0.0849042,VALID,19.3309,VALID,110,VALID,0.643012,
2001-04-22, 02:34:00,VALID,914.026,VALID,0,VALID,99.4306,VALID,-0.0679233,VALID,19.2986,VALID,111,VALID,0.598958,
2001-04-22, 02:35:00,VALID,914.04,VALID,0,VALID,99.4268,VALID,-0.0679233,VALID,19.2589,VALID,121,VALID,0.319285,
2001-04-22, 02:36:01,VALID,914.057,VALID,0,VALID,99.4293,VALID,-0.0679233,VALID,19.2559,VALID,121,VALID,0.0167101,
2001-04-22, 02:37:00,VALID,914.076,VALID,0,VALID,99.4318,VALID,-0.0679233,VALID,19.2301,VALID,106,VALID,0.454861,
2001-04-22, 02:38:01,VALID,914.091,VALID,0,VALID,99.4395,VALID,-0.0169808,VALID,19.2238,VALID,90,VALID,0.744243,
2001-04-22, 02:39:01,VALID,914.106,VALID,0,VALID,99.4331,VALID,-0.0679233,VALID,19.1913,VALID,86,VALID,0.592634,
2001-04-22, 02:40:01,VALID,914.102,VALID,0,VALID,99.4433,VALID,-0.0509425,VALID,19.198,VALID,83,VALID,0.534417,
2001-04-22, 02:41:00,VALID,914.104,VALID,0,VALID,99.4598,VALID,-0.0339617,VALID,19.2017,VALID,71,VALID,0.040671,
2001-04-22, 02:42:01,VALID,914.094,VALID,0,VALID,99.4535,VALID,-0.0679233,VALID,19.2015,VALID,71,VALID,0,
2001-04-22, 02:43:00,VALID,914.097,VALID,0,VALID,99.4522,VALID,-0.101885,VALID,19.2084,VALID,61,VALID,0.196715,
2001-04-22, 02:44:00,VALID,914.092,VALID,0,VALID,99.4535,VALID,-0.101885,VALID,19.205,VALID,57,VALID,0.338393,
2001-04-22, 02:45:01,VALID,914.088,VALID,0,VALID,99.4573,VALID,-0.0849042,VALID,19.202,VALID,75,VALID,0,
2001-04-22, 02:46:00,VALID,914.065,VALID,0,VALID,99.4662,VALID,-0.0849042,VALID,19.1987,VALID,75,VALID,0,
2001-04-22, 02:47:00,VALID,914.06,VALID,0,VALID,99.4738,VALID,-0.0679233,VALID,19.2117,VALID,75,VALID,0.00368924,
2001-04-22, 02:48:00,VALID,914.048,VALID,0,VALID,99.4611,VALID,-0.0679233,VALID,19.2047,VALID,104,VALID,0.359158,
2001-04-22, 02:49:01,VALID,914.04,VALID,0,VALID,99.4598,VALID,-0.101885,VALID,19.2181,VALID,117,VALID,0.465712,
2001-04-22, 02:50:00,VALID,914.024,VALID,0,VALID,99.4713,VALID,-0.101885,VALID,19.2119,VALID,101,VALID,0.252878,
2001-04-22, 02:51:01,VALID,914.01,VALID,0,VALID,99.4636,VALID,-0.0679233,VALID,19.2184,VALID,100,VALID,0.00217014,
2001-04-22, 02:52:01,VALID,913.982,VALID,0,VALID,99.4636,VALID,-0.0849042,VALID,19.2082,VALID,100,VALID,0,
2001-04-22, 02:53:01,VALID,913.956,VALID,0,VALID,99.4624,VALID,-0.0849042,VALID,19.2174,VALID,100,VALID,0,
2001-04-22, 02:54:00,VALID,913.942,VALID,0,VALID,99.4738,VALID,-0.0679233,VALID,19.2015,VALID,100,VALID,0,
2001-04-22, 02:55:01,VALID,913.923,VALID,0,VALID,99.4649,VALID,-0.0679233,VALID,19.1918,VALID,100,VALID,0,
2001-04-22, 02:56:00,VALID,913.918,VALID,0,VALID,99.4598,VALID,-0.0679233,VALID,19.1915,VALID,102,VALID,0,
2001-04-22, 02:57:00,VALID,913.904,VALID,0,VALID,99.4446,VALID,-0.0679233,VALID,19.1694,VALID,125,VALID,0,
2001-04-22, 02:58:00,VALID,913.897,VALID,0,VALID,99.4255,VALID,-0.0849042,VALID,19.1311,VALID,165,VALID,0,
2001-04-22, 02:59:00,VALID,913.895,VALID,0,VALID,99.4293,VALID,-0.0679233,VALID,19.0919,VALID,165,VALID,0,
2001-04-22, 03:00:01,VALID,913.899,VALID,0,VALID,99.4204,VALID,-0.0849042,VALID,19.0469,VALID,165,VALID,0.0849095,
2001-04-22, 03:01:01,VALID,913.904,VALID,0,VALID,99.4153,VALID,-0.0849042,VALID,19.0047,VALID,165,VALID,0.414732,
2001-04-22, 03:02:00,VALID,913.894,VALID,0,VALID,99.4318,VALID,-0.0679233,VALID,18.9758,VALID,165,VALID,0.571615,
2001-04-22, 03:03:01,VALID,913.901,VALID,0,VALID,99.442,VALID,-0.0849042,VALID,18.9532,VALID,158,VALID,0.513021,
2001-04-22, 03:04:00,VALID,913.901,VALID,0,VALID,99.4344,VALID,-0.0849042,VALID,18.9209,VALID,157,VALID,0.535807,
2001-04-22, 03:05:00,VALID,913.884,VALID,0,VALID,99.4331,VALID,-0.0679233,VALID,18.8849,VALID,155,VALID,0.412623,
2001-04-22, 03:06:01,VALID,913.857,VALID,0,VALID,99.4229,VALID,-0.0849042,VALID,18.8563,VALID,166,VALID,0.628255,
2001-04-22, 03:07:00,VALID,913.845,VALID,0,VALID,99.4357,VALID,-0.101885,VALID,18.8173,VALID,186,VALID,0.49197,
2001-04-22, 03:08:01,VALID,913.837,VALID,0,VALID,99.4509,VALID,-0.0509425,VALID,18.7977,VALID,192,VALID,0.430921,
2001-04-22, 03:09:01,VALID,913.826,VALID,0,VALID,99.4662,VALID,-0.101885,VALID,18.8014,VALID,196,VALID,0.448214,
2001-04-22, 03:10:01,VALID,913.822,VALID,0,VALID,99.4725,VALID,-0.0339617,VALID,18.801,VALID,216,VALID,0.394426,
2001-04-22, 03:11:01,VALID,913.811,VALID,0,VALID,99.4903,VALID,-0.0849042,VALID,18.7947,VALID,220,VALID,0.329274,
2001-04-22, 03:12:01,VALID,913.809,VALID,0,VALID,99.4903,VALID,-0.0679233,VALID,18.8014,VALID,216,VALID,0.249155,
2001-04-22, 03:13:00,VALID,913.816,VALID,0,VALID,99.4942,VALID,-0.0509425,VALID,18.8007,VALID,220,VALID,0.131611,
2001-04-22, 03:14:00,VALID,913.828,VALID,0,VALID,99.5005,VALID,-0.101885,VALID,18.7952,VALID,228,VALID,0.075,
2001-04-22, 03:15:01,VALID,913.817,VALID,0,VALID,99.5043,VALID,-0.0679233,VALID,18.788,VALID,214,VALID,0.0178865,
2001-04-22, 03:16:00,VALID,913.803,VALID,0,VALID,99.5107,VALID,-0.101885,VALID,18.7984,VALID,203,VALID,0.187277,
2001-04-22, 03:17:00,VALID,913.785,VALID,0,VALID,99.5056,VALID,-0.0679233,VALID,18.7947,VALID,197,VALID,0.256944,
2001-04-22, 03:18:00,VALID,913.774,VALID,0,VALID,99.5005,VALID,-0.0679233,VALID,18.7887,VALID,201,VALID,0.307292,
2001-04-22, 03:19:01,VALID,913.761,VALID,0,VALID,99.5107,VALID,-0.101885,VALID,18.782,VALID,224,VALID,0.898655,
2001-04-22, 03:20:01,VALID,913.76,VALID,0,VALID,99.5387,VALID,-0.101885,VALID,18.8047,VALID,227,VALID,0.857319,
2001-04-22, 03:21:01,VALID,913.752,VALID,0,VALID,99.5488,VALID,-0.0849042,VALID,18.837,VALID,228,VALID,0.882378,
2001-04-22, 03:22:01,VALID,913.757,VALID,0,VALID,99.545,VALID,-0.0679233,VALID,18.8697,VALID,227,VALID,0.898655,
2001-04-22, 03:23:01,VALID,913.752,VALID,0,VALID,99.5323,VALID,-0.0339617,VALID,18.8787,VALID,219,VALID,0.785567,
2001-04-22, 03:24:00,VALID,913.742,VALID,0,VALID,99.5221,VALID,0.0339617,VALID,18.8678,VALID,217,VALID,0.740402,
2001-04-22, 03:25:01,VALID,913.735,VALID,0,VALID,99.5348,VALID,0.0339617,VALID,18.8669,VALID,222,VALID,0.640836,
2001-04-22, 03:26:00,VALID,913.722,VALID,0,VALID,99.5361,VALID,0.0509425,VALID,18.8835,VALID,213,VALID,0.649127,
2001-04-22, 03:27:01,VALID,913.72,VALID,0,VALID,99.5234,VALID,0.0679233,VALID,18.8941,VALID,237,VALID,0.23163,
2001-04-22, 03:28:01,VALID,913.72,VALID,0,VALID,99.5221,VALID,0.0339617,VALID,18.8812,VALID,224,VALID,0.194111,
2001-04-22, 03:29:01,VALID,913.713,VALID,0,VALID,99.5336,VALID,0.0339617,VALID,18.8713,VALID,224,VALID,0.499777,
2001-04-22, 03:30:01,VALID,913.709,VALID,0,VALID,99.5336,VALID,0.0169808,VALID,18.8678,VALID,226,VALID,0.352796,
2001-04-22, 03:31:01,VALID,913.696,VALID,0,VALID,99.5399,VALID,0.0339617,VALID,18.8874,VALID,231,VALID,0.292857,
2001-04-22, 03:32:01,VALID,913.689,VALID,0,VALID,99.5425,VALID,0,VALID,18.9004,VALID,224,VALID,0.626736,
2001-04-22, 03:33:01,VALID,913.677,VALID,0,VALID,99.545,VALID,0,VALID,18.9135,VALID,217,VALID,0.48763,